[Iaude] MPEC N88: 2024 NS1 [a=1.45,e=0.29,i=11.8,H=24.1]
    mpec at cfa.harvard.edu 
    mpec at cfa.harvard.edu
       
    Mon Jul  8 00:18:02 EDT 2024
    
    
  
M.P.E.C. 2024-N88                                  Issued 2024 July 8, 04:16 UT
     The Minor Planet Electronic Circulars contain information on unusual
         minor planets, routine data on comets and natural satellites,
         and occasional editorial announcements.  They are published
    on behalf of Division F of the International Astronomical Union by the
          Minor Planet Center, Smithsonian Astrophysical Observatory,
                          Cambridge, MA 02138, U.S.A.
			  
             Prepared using the Tamkin Foundation Computer Network
                              MPC at CFA.HARVARD.EDU
            URL https://www.minorplanetcenter.net/    ISSN 1523-6714
                                    2024 NS1                                    
Observations:
     K24N01S* C2024 07 03.27648716 26 21.575+39 06 20.69         22.16wXEN088F52
     K24N01S  C2024 07 03.28762616 26 21.185+39 06 18.94         21.74wXEN088F52
     K24N01S  C2024 07 03.29877916 26 20.778+39 06 16.81         22.12wXEN088F52
     K24N01S  C2024 07 03.30997516 26 20.379+39 06 14.69         21.73wXEN088F52
     K24N01S  C2024 07 03.36992116 26 18.126+39 05 59.24         22.24GVEN088F52
     K24N01S  C2024 07 03.37074816 26 18.101+39 05 58.94         22.10GVEN088F52
     K24N01S KC2024 07 05.12744316 26 20.42 +38 56 21.3          21.6 GVEN088H21
     K24N01S KC2024 07 05.13033216 26 20.35 +38 56 20.3          21.4 GVEN088H21
     K24N01S KC2024 07 05.13322116 26 20.32 +38 56 19.0          21.4 GVEN088H21
     K24N01S KC2024 07 05.13688016 26 20.21 +38 56 17.7          21.6 GVEN088H21
     K24N01S KC2024 07 06.11028616 26 25.48 +38 49 32.5          21.9 GVEN088H21
     K24N01S KC2024 07 06.11881916 26 25.27 +38 49 29.2          22.0 GVEN088H21
     K24N01S KC2024 07 06.12830216 26 25.01 +38 49 24.9          21.9 GVEN088H21
     K24N01S KC2024 07 07.13688216 26 32.92 +38 41 05.9          20.8 GVEN088H21
     K24N01S KC2024 07 07.14285416 26 32.77 +38 41 03.3          21.5 GVEN088H21
     K24N01S KC2024 07 08.14301616 26 44.75 +38 31 23.2          22.1 GVEN088H21
     K24N01S KC2024 07 08.14883816 26 44.62 +38 31 19.2          22.0 GVEN088H21
     K24N01S KC2024 07 08.15843016 26 44.43 +38 31 13.2          21.0 GVEN088H21
Observer details:
F52 Pan-STARRS 2, Haleakala.  Observers J. Herman, T. Lowe, P. Minguez, A.
    Schultz, I. Smith.  Measurers K. Chambers, T. de Boer, J. Fairlamb, H.
    Gao, M. Huber, C.-C. Lin, E. Magnier, Y. Ramanjooloo, R. Wainscoat, R.
    Weryk.  1.8-m Ritchey-Chretien + CCD.
H21 Astronomical Research Observatory, Westfield.  Observer R. Holmes.
    Measurers T. Linder, R. Holmes, L. Horn.  1.3-m f/4.0 astrograph + CCD,
    0.81-m f/4.0 astrograph + CCD.
Orbital elements:
2024 NS1                                                 Earth MOID = 0.0119 AU
Epoch 2024 Mar. 31.0 TT = JDT 2460400.5                 MPC                     
M 288.93274              (2000.0)            P               Q                  
n   0.56401462     Peri.  182.87357     +0.66381570     +0.73083622             
a   1.4508053      Node   128.78080     -0.68205434     +0.67869599             
e   0.2925585      Incl.   11.75616     -0.30683969     +0.07245809             
P   1.75           H   24.15          G   0.15           U   9                  
Residuals in seconds of arc
240703 F52  0.1-  0.0     240705 H21  0.1-  0.0     240706 H21  0.1-  0.0
240703 F52  0.1-  0.1+    240705 H21  0.0   0.1+    240707 H21  0.1-  0.2-
240703 F52  0.2-  0.1-    240705 H21  0.6+  0.2-    240707 H21  0.3-  0.4+
240703 F52  0.0   0.0     240705 H21  0.5+  0.1-    240708 H21  0.1+  0.0
240703 F52  0.5-  0.1+    240706 H21  0.2+  0.1-    240708 H21  0.1-  0.2-
240703 F52  0.4-  0.0     240706 H21  0.2+  0.2+    240708 H21  0.1-  0.0
Ephemeris:
2024 NS1                 a,e,i = 1.45, 0.29, 12                  q = 1.0264
Date    TT    R. A. (2000) Decl.     Delta      r    Elong.  Phase     V
2024 06 08    16 35 11.5 +36 29 37   0.2237  1.1441   120.3    50.0    23.1
...
2024 06 23    16 28 31.6 +38 59 48   0.1677  1.0939   113.4    58.5    22.6
...
2024 07 01    16 26 31.5 +39 12 49   0.1367  1.0717   110.2    62.9    22.2
...
2024 07 07    16 26 31.6 +38 42 20   0.1127  1.0575   108.3    65.9    21.9
2024 07 08    16 26 43.1 +38 32 53   0.1086  1.0554   108.0    66.3    21.8
2024 07 09    16 26 58.7 +38 21 56   0.1045  1.0534   107.8    66.8    21.7
...
2024 07 15    16 30 24.9 +36 35 13   0.07975 1.0425   107.0    68.8    21.2
...
2024 07 23    16 44 25.7 +30 16 58   0.04629 1.0322   109.4    68.1    19.9
...
2024 08 07    00 50 48.5 -66 27 50   0.02559 1.0266   118.4    60.3    18.4
A. U. Tomatic                (C) Copyright 2024 MPC           M.P.E.C. 2024-N88
    
    
More information about the Iaude
mailing list